Wind_Speed
8 8 7 7 6 5 5 6 5 6 7 7 8 8 8 8 9 10 11 11 11 11 11 11 11 11 11 11 11 10 10 10 11 12 13 14 15 15 15 15 15 15 15 14 13 13 11 10 10
7 7 7 6 6 6 7 7 7 8 9 9 9 9 9 10 10 11 12 13 13 13 13 13 13 13 13 14 14 14 13 13 13 13 14 15 15 15 15 16 16 15 15 15 14 13 12 11 10
6 6 7 6 5 6 7 8 8 9 10 11 11 11 11 12 12 13 14 15 15 15 14 14 15 15 15 16 16 16 16 16 15 15 15 15 16 16 16 16 16 16 15 15 14 13 12 11 10
6 7 7 6 7 8 8 10 11 11 12 12 12 13 13 14 15 15 16 17 16 17 17 17 18 18 18 18 18 18 18 19 18 18 18 17 17 17 18 18 17 17 16 16 15 14 13 12 11
6 6 6 6 7 9 10 11 13 13 14 14 14 15 15 16 16 17 18 18 18 18 18 19 19 20 20 21 21 21 21 21 22 21 21 21 20 20 20 19 19 18 18 17 16 15 14 13 12
6 7 7 7 8 10 11 13 15 15 16 16 17 16 16 17 18 18 19 19 20 20 20 20 20 20 21 22 22 23 23 24 24 24 23 23 23 23 22 22 21 20 19 18 17 16 15 14 13
8 9 9 10 9 11 12 14 16 17 17 18 18 18 18 18 19 20 20 20 21 21 22 22 22 22 23 23 25 24 25 26 27 26 27 26 26 26 25 24 24 22 21 20 19 18 16 15 15
9 9 10 11 11 12 14 16 17 18 18 18 19 19 19 19 20 21 21 22 22 22 23 24 25 25 25 25 26 26 27 27 27 28 27 28 29 28 27 26 26 25 23 22 21 20 19 17 17
11 10 11 13 13 14 16 16 17 18 19 19 19 20 21 21 22 23 23 23 23 24 24 25 25 26 26 27 27 27 28 28 28 28 28 28 28 28 28 28 27 27 26 24 23 22 21 20 19
13 12 13 14 15 16 17 17 18 19 19 20 20 20 21 23 23 24 24 25 25 25 25 26 26 26 27 28 29 29 30 30 30 30 30 29 28 29 29 28 28 28 28 27 26 25 23 23 21
15 15 15 16 16 17 18 18 19 19 19 19 20 22 22 23 23 24 24 25 26 26 27 27 28 28 28 28 28 29 31 32 32 32 31 31 30 29 30 29 28 27 26 27 27 28 25 24 23
15 16 16 16 17 17 18 18 18 19 19 20 21 22 22 23 24 24 25 26 26 26 27 27 28 28 29 29 29 29 30 31 32 33 33 32 31 31 31 31 30 29 27 27 27 28 27 26 25
16 16 16 17 17 17 18 18 18 18 19 20 20 22 22 23 24 25 25 26 26 26 26 27 27 27 28 28 28 29 29 30 31 32 33 33 33 33 32 32 31 31 30 29 28 28 27 27 27
17 16 16 17 17 17 17 17 17 18 19 19 20 21 22 23 24 24 25 25 25 25 25 25 25 25 25 25 26 26 27 28 29 30 32 33 33 33 34 34 33 33 31 30 30 29 28 28 28
16 17 17 16 16 16 17 17 17 17 18 19 20 21 21 23 23 24 24 24 24 24 24 23 23 23 23 23 24 24 24 25 27 29 30 31 32 33 33 34 34 34 33 32 32 31 30 29 28
15 15 15 14 14 15 17 18 17 17 18 19 20 21 21 22 23 23 23 23 23 23 23 22 22 22 22 22 22 23 24 25 26 27 28 29 30 31 32 32 33 33 34 34 34 33 32 32 30
13 13 14 16 14 15 16 18 17 17 18 18 19 20 20 21 22 22 22 22 23 23 22 22 22 21 21 21 22 22 22 23 24 25 26 27 29 29 30 31 32 34 34 34 34 34 33 33 32
13 13 14 17 17 16 16 17 17 15 16 17 18 19 20 21 22 22 22 22 23 23 23 22 22 21 21 21 21 21 21 21 22 22 22 23 25 27 28 29 30 32 33 34 34 34 34 34 33
14 12 13 18 16 16 15 15 16 15 15 17 18 19 20 21 21 21 22 22 22 23 23 22 22 21 21 21 20 20 19 19 19 19 19 20 22 24 25 26 28 30 31 32 34 34 34 33 34
13 13 14 17 15 13 13 13 13 14 15 15 16 17 18 19 20 21 21 22 22 23 23 22 22 21 21 20 20 19 18 17 16 16 16 17 18 20 22 24 25 27 29 30 33 34 34 34 34
14 15 15 15 14 13 11 11 11 12 14 14 15 16 17 18 19 20 21 22 22 22 22 22 22 22 21 21 20 19 18 17 16 15 14 15 16 17 19 21 23 25 26 28 30 32 33 34 34
15 14 13 12 12 10 9 10 11 11 12 13 14 15 16 17 18 19 20 21 22 22 22 22 22 22 22 21 20 19 19 17 16 15 14 13 14 15 16 18 20 22 24 25 28 30 31 33 34
14 12 10 10 9 7 7 8 11 11 12 13 14 15 16 17 18 19 20 20 21 22 22 22 22 22 22 21 21 20 19 18 17 16 15 13 13 13 14 15 17 19 21 23 25 28 30 32 33
12 10 8 6 5 4 6 7 10 11 12 13 13 14 15 16 17 18 19 20 21 22 23 22 22 23 23 22 21 20 20 18 17 16 15 14 13 12 12 13 15 17 19 21 23 25 28 30 32
11 9 5 3 5 7 7 8 9 10 11 12 13 14 15 15 16 17 19 20 21 22 23 23 23 23 23 23 22 21 20 19 18 17 16 15 14 13 13 12 13 15 17 19 20 23 26 28 30
10 8 7 6 4 8 8 8 7 8 9 10 11 12 13 14 15 17 18 20 21 22 23 23 23 23 24 24 23 23 22 21 19 18 17 17 15 14 13 12 11 12 14 16 18 20 22 25 27
9 9 9 8 7 5 7 6 4 7 7 9 10 11 12 13 15 16 17 19 20 21 23 23 24 24 24 24 24 24 23 22 21 20 19 18 17 15 14 12 10 9 10 12 14 16 19 21 24
10 9 9 8 7 5 5 9 5 5 7 8 9 10 11 13 14 15 17 18 19 21 22 23 24 24 24 25 25 25 25 24 22 22 21 20 19 17 15 12 10 9 8 9 11 13 14 16 19
9 9 9 8 7 7 6 7 5 5 6 7 8 10 11 12 14 15 16 17 19 20 21 23 24 24 25 25 26 26 26 25 24 23 22 21 20 19 17 14 12 9 7 7 8 10 12 14 17
9 9 10 9 8 7 6 5 3 4 5 7 8 9 10 12 13 14 15 17 18 19 20 22 23 24 24 25 26 26 26 25 25 24 23 22 21 21 19 16 13 11 8 6 6 7 9 11 14
Wind_Direction
38 38 41 36 34 30 20 19 7 354 347 335 327 323 318 313 311 308 304 300 296 293 290 285 280 277 270 264 263 259 256 253 251 250 249 246 243 243 245 245 245 245 246 248 251 254 257 262 268
26 27 29 22 13 8 4 1 352 343 337 326 319 317 313 308 306 302 300 298 299 294 288 281 277 275 272 263 262 260 258 257 256 254 252 249 246 244 247 247 246 246 247 248 252 254 256 260 264
9 12 14 2 357 1 349 342 338 333 328 321 315 312 308 306 303 300 297 294 295 293 288 282 276 273 273 267 264 259 256 257 257 256 254 252 247 246 248 249 249 248 249 250 252 254 255 257 259
358 4 356 346 345 344 337 332 328 327 321 316 312 309 305 303 301 298 296 295 293 290 287 285 278 274 272 268 265 261 257 256 255 255 254 252 251 250 250 250 250 250 251 251 252 252 253 253 255
341 349 337 329 334 337 331 328 326 324 319 315 312 310 307 303 302 300 298 296 294 291 287 283 281 276 271 268 267 263 260 258 255 254 253 251 251 251 250 250 249 249 250 251 251 251 251 251 252
319 315 311 321 330 328 323 323 322 320 318 314 312 312 309 306 304 302 300 298 296 292 289 285 283 280 274 270 269 264 262 260 257 254 254 253 252 252 251 250 249 248 248 248 248 248 248 249 248
302 306 314 314 316 317 316 318 318 316 316 314 312 312 310 307 306 304 302 299 297 294 291 288 285 282 279 273 267 266 263 263 262 258 254 253 252 251 251 249 248 248 248 247 246 245 245 246 245
295 304 310 303 309 313 312 314 315 316 317 316 314 313 312 310 308 306 304 301 298 295 292 290 286 286 281 276 272 268 266 265 264 261 258 256 254 253 252 249 246 247 247 246 244 242 243 244 244
291 296 291 294 304 309 309 312 315 316 317 317 315 313 312 312 311 309 306 304 301 299 296 292 289 286 284 280 276 272 271 269 267 265 263 260 257 256 255 253 249 246 246 245 243 241 242 242 243
284 286 290 297 304 309 311 315 317 317 317 317 318 317 315 313 313 311 309 306 304 301 299 296 293 290 287 283 279 276 275 272 270 268 267 265 263 259 256 254 255 251 246 245 243 241 242 242 242
279 285 291 299 307 310 313 317 318 318 320 321 321 321 319 317 316 315 312 309 306 304 301 298 296 294 291 288 283 279 276 274 272 270 268 266 265 263 260 256 255 252 249 246 244 242 241 241 241
277 285 292 299 305 309 313 316 318 320 322 323 323 323 322 320 319 317 315 313 309 305 302 299 298 296 294 291 287 282 279 275 273 270 268 266 264 263 263 260 254 253 252 249 248 244 241 240 241
279 286 294 301 306 311 315 318 320 322 323 324 325 325 326 325 322 321 319 317 315 311 307 304 301 298 296 293 290 286 282 278 274 270 268 265 263 261 260 259 258 254 252 251 250 248 244 243 241
283 290 297 302 308 311 314 317 319 323 323 324 325 328 328 328 326 325 324 323 321 319 315 311 307 304 302 298 294 289 285 281 277 273 269 265 263 260 258 256 256 254 251 250 251 250 246 242 240
280 292 297 302 306 310 315 317 320 324 325 327 328 330 330 330 330 330 329 327 326 324 322 318 314 310 307 303 299 295 291 286 281 276 271 266 262 260 258 255 253 253 251 249 249 249 247 244 244
280 290 297 299 303 312 317 318 323 326 327 329 331 332 334 334 334 334 333 332 331 329 326 323 319 316 313 309 305 300 296 291 286 280 273 267 263 260 257 255 252 251 250 249 248 247 247 245 244
277 285 291 295 305 313 315 317 321 326 328 331 333 334 337 339 340 340 340 339 338 336 334 331 328 325 321 317 312 308 303 298 292 285 277 269 263 260 257 255 253 251 249 247 247 245 245 244 243
274 284 294 299 308 312 314 316 321 330 332 334 336 339 342 344 346 346 345 344 344 342 340 338 335 333 329 325 320 315 310 305 298 290 281 272 264 260 258 255 253 251 249 247 246 245 244 243 242
265 280 293 293 302 307 310 316 323 331 335 336 339 343 345 346 348 349 349 349 349 348 346 344 341 339 337 333 330 325 319 314 308 298 286 276 268 263 259 257 254 251 248 246 244 243 243 242 241
270 278 279 287 300 302 308 315 324 332 337 340 343 345 347 349 350 351 352 352 351 351 351 350 348 346 344 340 338 335 331 325 319 311 298 286 276 268 263 259 256 251 248 245 243 242 241 241 241
266 269 276 288 298 304 310 314 327 338 341 344 347 349 349 350 350 351 352 353 353 353 354 354 353 352 350 348 346 344 341 336 330 321 309 296 285 276 268 262 258 253 249 246 244 241 240 240 241
262 272 281 288 296 303 316 326 333 342 347 348 350 351 352 352 352 353 354 356 357 358 357 357 357 355 353 352 350 349 347 344 339 332 323 309 294 284 276 267 260 256 251 247 243 241 240 239 239
263 273 281 288 295 302 320 330 326 341 345 350 352 353 354 355 356 357 359 0 2 3 2 3 3 1 359 357 355 353 351 350 346 341 335 325 310 296 286 275 267 261 256 251 246 242 241 240 239
263 270 269 283 306 315 315 319 316 337 344 348 351 353 355 356 360 3 4 6 7 8 8 7 6 6 5 4 2 0 358 356 353 348 343 337 327 313 298 284 274 265 258 253 249 245 243 241 240
255 254 247 299 333 316 301 304 311 334 340 344 348 352 356 1 4 6 7 9 10 11 10 10 10 9 8 7 6 4 2 0 357 354 350 345 338 327 312 297 282 270 262 255 251 248 245 243 241
246 237 227 201 217 273 285 292 320 332 339 344 349 354 359 3 6 8 10 12 13 14 14 13 13 12 11 10 9 7 5 3 1 360 357 353 348 340 330 317 298 280 268 259 254 251 247 243 241
242 233 233 227 212 239 288 295 314 325 336 343 351 356 359 4 8 10 13 14 16 17 17 17 16 16 15 15 13 12 11 9 7 5 3 0 358 352 346 335 323 300 280 268 260 255 249 244 241
241 235 229 220 215 207 270 291 313 327 336 344 353 359 4 8 10 12 14 16 17 17 18 18 18 18 17 16 15 14 14 13 13 10 8 7 5 2 359 351 340 326 303 280 267 257 250 246 242
232 226 222 221 217 207 220 265 312 325 336 345 353 360 4 7 10 12 14 15 15 16 17 18 18 17 17 17 17 17 16 16 16 14 13 13 12 9 5 1 354 342 326 300 279 265 255 250 244
234 226 218 215 214 218 234 263 288 314 332 342 350 356 1 5 7 9 11 12 13 14 14 15 16 16 17 17 17 18 18 18 18 19 18 16 15 14 10 6 2 354 343 323 299 278 263 256 247
Height
5909 5908 5907 5907 5906 5905 5904 5904 5904 5903 5902 5901 5901 5900 5900 5899 5899 5900 5897 5895 5894 5893 5892 5891 5891 5890 5890 5890 5889 5889 5889 5889 5889 5889 5889 5889 5889 5890 5890 5891 5891 5892 5892 5893 5893 5893 5893 5893 5893
5910 5909 5909 5909 5907 5905 5905 5904 5904 5903 5902 5901 5900 5900 5899 5898 5897 5896 5895 5894 5892 5892 5891 5890 5889 5889 5888 5888 5888 5887 5887 5887 5887 5887 5887 5887 5888 5888 5889 5889 5890 5890 5891 5891 5891 5892 5892 5892 5892
5910 5910 5910 5909 5908 5907 5906 5904 5903 5902 5901 5900 5900 5899 5898 5897 5896 5894 5893 5892 5891 5890 5889 5888 5887 5886 5886 5885 5885 5885 5885 5885 5885 5885 5885 5885 5885 5886 5886 5887 5888 5888 5889 5889 5890 5890 5890 5891 5891
5911 5911 5911 5910 5907 5906 5905 5904 5902 5901 5900 5899 5899 5898 5896 5895 5894 5892 5891 5889 5888 5887 5886 5885 5884 5884 5883 5882 5882 5882 5882 5882 5882 5882 5882 5883 5883 5883 5884 5885 5885 5886 5887 5887 5888 5888 5888 5889 5889
5912 5911 5910 5907 5905 5905 5904 5903 5901 5900 5899 5897 5897 5896 5894 5893 5891 5889 5888 5886 5885 5884 5883 5882 5881 5880 5879 5879 5879 5878 5878 5878 5879 5879 5879 5879 5880 5880 5881 5882 5882 5883 5884 5884 5885 5886 5886 5887 5887
5912 5911 5909 5906 5905 5904 5903 5902 5900 5899 5897 5895 5894 5893 5891 5890 5888 5886 5885 5883 5881 5880 5879 5878 5877 5876 5875 5875 5875 5874 5874 5874 5874 5875 5875 5876 5876 5877 5877 5878 5879 5880 5881 5881 5882 5883 5884 5885 5885
5911 5910 5907 5906 5905 5903 5902 5900 5899 5897 5896 5894 5892 5890 5889 5887 5885 5883 5881 5879 5878 5876 5875 5873 5872 5872 5871 5870 5870 5869 5869 5869 5869 5870 5870 5871 5872 5872 5873 5874 5875 5876 5877 5878 5879 5880 5881 5882 5883
5909 5909 5906 5905 5903 5902 5901 5899 5897 5895 5893 5892 5890 5888 5886 5884 5882 5879 5877 5875 5874 5872 5870 5868 5867 5866 5865 5865 5864 5864 5864 5863 5864 5864 5864 5865 5866 5867 5868 5869 5871 5872 5873 5874 5875 5877 5878 5879 5880
5907 5908 5905 5903 5902 5900 5898 5897 5895 5893 5891 5889 5887 5885 5882 5880 5878 5875 5873 5871 5869 5867 5865 5863 5862 5860 5859 5858 5858 5858 5858 5857 5858 5858 5859 5859 5860 5861 5863 5864 5865 5867 5868 5870 5871 5873 5874 5876 5877
5906 5905 5902 5900 5900 5898 5896 5894 5893 5891 5889 5887 5884 5882 5879 5877 5874 5871 5869 5866 5864 5862 5860 5857 5856 5854 5853 5852 5852 5851 5851 5851 5851 5852 5852 5853 5854 5855 5856 5858 5860 5861 5863 5865 5866 5868 5870 5872 5873
5903 5902 5901 5899 5898 5896 5894 5892 5890 5888 5886 5884 5882 5879 5876 5873 5870 5868 5865 5862 5859 5857 5854 5852 5850 5848 5847 5846 5845 5844 5844 5844 5844 5844 5845 5846 5847 5848 5850 5851 5853 5855 5857 5859 5861 5863 5865 5867 5869
5899 5900 5899 5898 5896 5894 5893 5891 5888 5886 5884 5882 5879 5876 5873 5870 5867 5864 5861 5858 5855 5852 5849 5847 5844 5842 5840 5839 5838 5837 5836 5836 5836 5836 5837 5838 5840 5841 5842 5844 5846 5848 5850 5853 5855 5857 5860 5862 5864
5895 5897 5897 5896 5894 5892 5891 5888 5886 5884 5882 5879 5876 5873 5870 5867 5863 5860 5857 5853 5850 5847 5844 5841 5838 5836 5834 5832 5830 5829 5829 5828 5828 5828 5829 5830 5831 5833 5834 5837 5839 5841 5844 5846 5848 5851 5854 5856 5859
5894 5893 5894 5893 5892 5890 5888 5887 5885 5882 5880 5877 5874 5871 5867 5864 5861 5857 5853 5849 5846 5842 5839 5836 5833 5830 5828 5825 5823 5822 5821 5820 5820 5820 5820 5821 5822 5824 5826 5828 5831 5834 5836 5839 5841 5844 5847 5850 5853
5894 5893 5892 5891 5889 5888 5886 5884 5882 5880 5877 5874 5871 5869 5865 5861 5858 5854 5850 5846 5842 5839 5835 5831 5828 5825 5822 5820 5817 5815 5814 5813 5812 5811 5811 5812 5813 5815 5817 5819 5822 5825 5828 5832 5835 5838 5841 5844 5847
5891 5891 5889 5887 5885 5884 5886 5882 5880 5877 5875 5872 5869 5866 5863 5859 5855 5852 5847 5843 5839 5835 5831 5828 5824 5821 5818 5815 5812 5810 5807 5806 5804 5803 5803 5803 5804 5806 5809 5811 5814 5817 5820 5824 5827 5831 5834 5837 5840
5889 5887 5886 5884 5883 5882 5882 5880 5878 5876 5873 5870 5867 5864 5861 5857 5853 5849 5845 5841 5837 5833 5829 5824 5821 5817 5814 5810 5807 5804 5802 5799 5797 5796 5795 5795 5796 5798 5800 5803 5805 5808 5812 5815 5819 5823 5827 5830 5834
5886 5885 5884 5883 5881 5880 5879 5878 5876 5874 5871 5868 5865 5862 5859 5855 5851 5847 5843 5839 5835 5831 5826 5822 5818 5814 5810 5807 5803 5800 5797 5794 5791 5789 5788 5788 5789 5790 5792 5794 5797 5800 5804 5807 5811 5815 5819 5823 5827
5883 5883 5883 5882 5881 5880 5878 5876 5874 5872 5870 5867 5864 5861 5857 5854 5850 5846 5842 5838 5834 5829 5824 5820 5816 5811 5807 5803 5800 5796 5792 5789 5786 5784 5782 5782 5782 5783 5785 5787 5789 5792 5796 5799 5803 5807 5811 5815 5819
5881 5881 5882 5880 5879 5878 5876 5875 5873 5870 5868 5866 5863 5860 5857 5853 5849 5845 5841 5837 5833 5828 5823 5819 5814 5810 5805 5801 5797 5793 5789 5786 5783 5780 5778 5777 5777 5778 5779 5780 5782 5785 5788 5791 5795 5799 5802 5807 5811
5880 5880 5879 5878 5877 5876 5875 5874 5872 5870 5868 5865 5863 5860 5856 5853 5849 5845 5841 5837 5832 5827 5822 5818 5813 5808 5804 5799 5795 5791 5787 5783 5780 5777 5775 5774 5773 5773 5773 5774 5776 5778 5781 5784 5787 5790 5795 5799 5803
5877 5877 5877 5876 5876 5875 5874 5872 5870 5868 5867 5865 5862 5859 5856 5853 5849 5845 5841 5836 5832 5827 5822 5817 5812 5807 5803 5798 5794 5790 5786 5782 5779 5775 5773 5771 5770 5769 5769 5769 5770 5772 5774 5777 5779 5783 5787 5791 5795
5874 5875 5875 5875 5874 5874 5873 5872 5871 5868 5866 5865 5862 5859 5856 5852 5849 5845 5841 5836 5832 5827 5822 5817 5812 5807 5802 5798 5793 5789 5785 5781 5777 5774 5771 5769 5767 5766 5765 5765 5765 5766 5768 5770 5773 5776 5779 5783 5788
5872 5873 5874 5873 5873 5873 5873 5872 5871 5867 5866 5864 5862 5859 5856 5852 5849 5845 5841 5836 5832 5827 5822 5817 5812 5808 5803 5798 5793 5788 5784 5780 5776 5773 5770 5767 5764 5763 5761 5761 5761 5761 5762 5764 5766 5769 5772 5776 5780
5871 5872 5872 5873 5873 5873 5872 5872 5871 5868 5866 5864 5862 5859 5856 5852 5849 5845 5841 5837 5832 5828 5823 5818 5813 5808 5803 5798 5793 5789 5784 5780 5776 5772 5769 5765 5763 5760 5758 5757 5756 5756 5757 5758 5760 5763 5765 5769 5772
5868 5870 5871 5872 5874 5873 5871 5870 5870 5868 5866 5864 5861 5859 5856 5853 5849 5846 5842 5838 5833 5829 5824 5819 5814 5809 5804 5799 5794 5789 5784 5779 5775 5771 5768 5764 5761 5758 5756 5754 5753 5752 5753 5753 5755 5757 5759 5762 5765
5866 5867 5868 5869 5870 5871 5870 5869 5869 5867 5866 5864 5861 5859 5856 5853 5850 5847 5843 5839 5835 5830 5826 5821 5816 5811 5806 5801 5795 5790 5785 5780 5775 5771 5767 5763 5760 5756 5754 5751 5750 5749 5749 5749 5750 5752 5753 5755 5759
5865 5865 5867 5867 5868 5869 5871 5868 5867 5866 5865 5863 5861 5859 5856 5853 5850 5847 5844 5840 5836 5832 5827 5823 5818 5813 5808 5802 5797 5792 5786 5781 5776 5772 5767 5763 5759 5756 5753 5750 5748 5747 5746 5746 5747 5748 5749 5751 5754
5863 5864 5865 5866 5866 5867 5868 5869 5866 5865 5864 5863 5861 5859 5856 5854 5851 5848 5845 5841 5837 5833 5829 5824 5820 5815 5810 5804 5799 5794 5788 5783 5778 5773 5769 5764 5760 5756 5753 5750 5747 5746 5744 5744 5744 5745 5746 5748 5750
5861 5862 5863 5865 5865 5865 5866 5869 5865 5864 5863 5862 5860 5858 5856 5854 5851 5848 5845 5842 5838 5834 5830 5826 5821 5816 5811 5806 5801 5796 5790 5785 5780 5775 5770 5766 5762 5757 5754 5750 5747 5745 5744 5743 5742 5743 5743 5745 5746